Simultaneous Nadir Overpasses (SNOs) Predictions

Prediction of SNOs between AQUA and METOP-A Satellite Orbit:

Table of predicted SNOs for the next 14.0 days since TLE Epoch: 2/26/2016
Index Date (AQUA) Time (AQUA) Lat,Lon (AQUA) SZA (AQUA ) Date (METOP-A) Time (METOP-A) Lat,Lon (METOP-A) SZA (METOP-A ) Distance(km) Time Diff (sec)
1 02/28/2016 06:52:01 -73.89,-108.90 97.86 02/28/2016 06:51:40 -73.88,-108.84 97.87 2.38 21
2 02/28/2016 07:41:29 73.90, 58.69 82.15 02/28/2016 07:42:19 73.92, 58.59 82.16 3.24 50
3 03/02/2016 01:36:41 73.33, 151.09 80.48 03/02/2016 01:35:34 73.27, 148.84 80.54 72.01 67
4 03/02/2016 02:26:17 -73.87, -42.44 98.95 03/02/2016 02:26:04 -73.87, -42.45 98.95 0.37 13
5 03/02/2016 03:15:46 73.95, 125.03 81.12 03/02/2016 03:16:42 73.95, 125.09 81.12 1.87 56
6 03/04/2016 21:11:04 73.65,-143.16 79.74 03/04/2016 21:09:53 73.56,-144.11 79.71 31.68 71
7 03/04/2016 22:00:34 -73.88, 23.99 100.03 03/04/2016 22:00:29 -73.86, 23.93 100.04 2.52 5
8 03/04/2016 22:50:03 73.95,-168.55 80.04 03/04/2016 22:51:07 73.94,-168.55 80.02 1.90 64
9 03/07/2016 16:45:24 73.83, -77.11 78.84 03/07/2016 16:44:12 73.84, -77.05 78.86 2.01 72
10 03/07/2016 17:34:51 -73.90, 90.38 101.11 03/07/2016 17:34:53 -73.90, 90.41 101.11 1.06 2
11 03/07/2016 18:24:20 73.98,-102.17 78.97 03/07/2016 18:25:31 73.97,-102.08 78.94 3.13 71
12 03/10/2016 12:19:39 73.82, -10.65 77.72 03/10/2016 12:18:36 73.81, -10.71 77.73 1.86 63
13 03/10/2016 13:09:06 -73.88, 156.85 102.23 03/10/2016 13:09:17 -73.88, 156.77 102.24 2.44 11




NCC Satellite Simultaneous Nadir Overpasses (SNOs) Prediction Service
